[[{"header":{"parameterUnit":"m.s-1","parameterCategory":1,"la1":30.2991,"la2":30.254,"lo1":-89.0895,"lo2":-89.0444,"dy":0.0017,"dx":0.0017,"nx":28,"ny":28,"refTime":"2023-10-10T21:00:00:Z","depth":0,"parameterNumber":2,"parameterNumberName":"U-component_of_WINDS"},"data":[0,0,0,0,0,0,0,0,0,0,0,0,0,0,0,0,0,0,0,0,0,0,0,0,0,0,0,0,0,0,0,0,0,0,0,0,0,0,0,0,0,0,0,0,0,0,0,0,0,0,0,0,0,0,0,0,0,0,-1.0591,-1.0591,0,-1.0588,-1.0588,-1.0588,-1.0547,-1.0546,-1.0545,-1.0544,-1.0542,-1.0543,-1.0544,0,0,0,0,0,0,0,0,0,0,0,0,0,-1.0565,-1.0566,-1.0591,-1.0591,-1.0591,-1.0588,-1.0588,-1.0588,-1.0548,-1.0546,-1.0545,-1.0544,-1.0542,-1.0543,-1.0544,0,0,0,0,0,0,0,0,0,0,0,0,0,-1.0571,-1.0566,-1.0591,-1.0571,-1.0569,-1.0588,-1.0588,-1.0588,-1.0548,-1.0546,-1.0545,-1.0543,-1.0541,-1.0543,-1.0544,-1.0583,0,0,-1.0548,-1.0549,0,0,0,0,0,0,0,0,-1.0571,-1.0572,-1.0574,-1.0572,-1.057,-1.0566,-1.0578,-1.0586,-1.0548,-1.0556,-1.0544,-1.0543,-1.0551,-1.0552,-1.0555,-1.0583,-1.0582,-1.0548,-1.0549,-1.0549,-1.055,0,0,0,0,0,0,0,-1.057,-1.0572,-1.059,-1.0574,-1.0572,-1.0562,-1.0562,-1.0579,-1.0562,-1.0555,-1.0552,-1.0552,-1.055,-1.0553,-1.0554,-1.0582,-1.0548,-1.0549,-1.055,-1.0551,-1.0643,-1.0645,0,0,0,0,0,0,-1.0573,-1.0572,-1.059,-1.059,-1.0567,-1.0564,-1.0563,-1.0569,-1.0562,-1.0559,-1.0554,-1.055,-1.0552,-1.0553,-1.0554,-1.06,-1.0549,-1.0551,-1.0551,-1.0641,-1.0644,-1.0645,0,0,0,0,0,0,-1.0572,-1.0575,-1.059,-1.058,-1.0581,-1.0566,-1.0573,-1.057,-1.0573,-1.0561,-1.0558,-1.056,-1.0551,-1.0552,-1.0576,-1.0599,-1.0551,-1.0553,-1.064,-1.0642,-1.0644,-1.0691,0,0,0,0,0,0,-1.0572,-1.0575,-1.0589,-1.0581,-1.0582,-1.0612,-1.0575,-1.0571,-1.0575,-1.0571,-1.0566,-1.0564,-1.055,-1.0574,-1.0577,-1.06,-1.0554,-1.0637,-1.0641,-1.0644,-1.0687,-1.0694,-1.0701,0,0,0,0,0,-1.0571,-1.0602,-1.059,-1.0592,-1.0599,-1.0613,-1.0614,-1.0597,-1.0577,-1.0592,-1.0584,-1.0564,-1.0596,-1.0577,-1.058,-1.0603,-1.0636,-1.064,-1.0643,-1.0684,-1.0693,-1.0701,0,0,0,0,0,0,-1.0613,-1.06,-1.0587,-1.0616,-1.0616,-1.0606,-1.0624,-1.0607,-1.0613,-1.0609,-1.0588,-1.0587,-1.0615,-1.0611,-1.059,-1.0641,-1.0612,-1.0617,-1.0642,-1.0651,-1.0657,-1.0658,-1.0555,0,0,0,0,0,-1.0626,-1.0638,-1.0626,-1.0653,-1.0654,-1.0639,-1.0645,-1.0632,-1.0631,-1.0631,-1.0625,-1.0626,-1.0636,-1.0643,-1.0652,-1.0686,-1.0685,-1.0704,-1.0711,-1.0717,-1.0721,-1.074,-1.0749,-1.0658,-1.0658,-1.0658,0,0,-1.0652,-1.0647,-1.0656,-1.0662,-1.066,-1.0674,-1.0639,-1.0655,-1.0665,-1.0633,-1.0656,-1.0651,-1.0651,-1.0681,-1.0693,-1.0679,-1.0746,-1.0721,-1.0726,-1.0727,-1.0745,-1.0753,-1.0761,-1.066,-1.066,-1.0659,0,0,-1.0708,-1.0704,-1.0727,-1.0726,-1.0724,-1.0715,-1.072,-1.0713,-1.0709,-1.0731,-1.0708,-1.072,-1.0738,-1.0739,-1.0741,-1.0798,-1.078,-1.0802,-1.0838,-1.0857,-1.0864,-1.087,-1.0891,-1.0899,-1.0806,-1.0806,-1.0806,0,-1.0741,-1.076,-1.0741,-1.0758,-1.0762,-1.0734,-1.0757,-1.0757,-1.0759,-1.0763,-1.0746,-1.0769,-1.0766,-1.0796,-1.081,-1.0813,-1.0819,-1.0802,-1.0864,-1.087,-1.0876,-1.0896,-1.0904,-1.0809,-1.0809,-1.0808,-1.0808,0,-1.0802,-1.0815,-1.0834,-1.0836,-1.0842,-1.0862,-1.0847,-1.0855,-1.0842,-1.0834,-1.0857,-1.0853,-1.0861,-1.0867,-1.0855,-1.0896,-1.0887,-1.0868,-1.0839,-1.0888,-1.0906,-1.0914,-1.0813,-1.0812,-1.0811,-1.081,0,0,-1.0883,-1.0875,-1.0882,-1.0883,-1.0879,-1.089,-1.091,-1.0917,-1.0925,-1.0927,-1.0944,-1.096,-1.0942,-1.0946,-1.0933,-1.0949,-1.0996,-1.0928,-1.0928,-1.0941,-1.1042,-1.1057,-1.1067,-1.0984,-1.0985,-1.0986,-1.1043,0,-1.0937,-1.097,-1.0953,-1.0988,-1.1001,-1.0975,-1.0992,-1.0992,-1.0986,-1.0996,-1.0989,-1.1001,-1.0976,-1.0978,-1.0994,-1.0987,-1.1016,-1.0982,-1.1,-1.1,-1.1001,-1.1076,-1.1092,-1.1145,-1.105,-1.1051,-1.1052,0,-1.1005,-1.101,-1.1046,-1.104,-1.1045,-1.1061,-1.1067,-1.1077,-1.1077,-1.1071,-1.1075,-1.1059,-1.1079,-1.105,-1.1077,-1.1055,-1.1061,-1.1059,-1.106,-1.1062,-1.1029,-1.108,-1.1162,-1.117,-1.1063,-1.1062,-1.1061,0,-1.1062,-1.1077,-1.1101,-1.1103,-1.1097,-1.1109,-1.1107,-1.1105,-1.1111,-1.1117,-1.1121,-1.1129,-1.1133,-1.114,-1.1127,-1.1106,-1.1156,-1.1126,-1.1153,-1.1153,-1.1165,-1.1164,-1.1249,-1.1168,-1.1168,-1.1167,-1.1167,0,-1.1124,-1.1148,-1.1127,-1.1142,-1.1167,-1.1149,-1.1175,-1.117,-1.1169,-1.1184,-1.1161,-1.1175,-1.1156,-1.1168,-1.1158,-1.1183,-1.1185,-1.1181,-1.1178,-1.1183,-1.1184,-1.1187,-1.1184,-1.1169,-1.1169,-1.1169,-1.1168,0,-1.1193,-1.118,-1.1204,-1.1197,-1.1195,-1.1215,-1.1209,-1.1223,-1.1215,-1.1233,-1.1236,-1.1224,-1.1237,-1.1224,-1.1236,-1.1229,-1.1263,-1.1254,-1.1263,-1.1261,-1.1289,-1.1287,-1.138,-1.1391,-1.1302,-1.1302,-1.1303,0,-1.1234,-1.1251,-1.1246,-1.1253,-1.1253,-1.1265,-1.1271,-1.1254,-1.1261,-1.1263,-1.1277,-1.1288,-1.1296,-1.1319,-1.1312,-1.1321,-1.1313,-1.1345,-1.1314,-1.132,-1.1315,-1.1314,-1.1316,-1.1351,-1.1353,-1.1353,-1.1354,0,-1.1308,-1.1301,-1.131,-1.1318,-1.1325,-1.133,-1.1334,-1.1341,-1.1323,-1.1333,-1.1346,-1.1353,-1.1365,-1.1377,-1.1385,-1.1384,-1.1367,-1.1364,-1.1371,-1.1377,-1.1381,-1.138,-1.1281,-1.1362,-1.1361,-1.136,-1.136,-1.136,-1.1365,-1.1379,-1.1378,-1.1389,-1.139,-1.1394,-1.1407,-1.14,-1.1411,-1.142,-1.1409,-1.1425,-1.1426,-1.1434,-1.1435,-1.1448,-1.1435,-1.1445,-1.1447,-1.145,-1.1455,-1.1379,-1.145,-1.1449,-1.1449,-1.1449,-1.1449,0,-1.1439,-1.1437,-1.1447,-1.1453,-1.1462,-1.1444,-1.1447,-1.1456,-1.1471,-1.1473,-1.1481,-1.1497,-1.1509,-1.1502,-1.1512,-1.1524,-1.1517,-1.1528,-1.1527,-1.1527,-1.1466,-1.1459,-1.1534,-1.1534,-1.1534,-1.1534,-1.1534,-1.1534,-1.1479,-1.1503,-1.1496,-1.152,-1.1518,-1.1534,-1.1537,-1.1541,-1.1542,-1.1561,-1.157,-1.1566,-1.1564,-1.1574,-1.1585,-1.1583,-1.1588,-1.1602,-1.1597,-1.154,-1.1532,-1.1524,-1.1517,-1.1603,-1.1603,-1.1658,-1.1658,-1.1659]},{"header":{"parameterUnit":"m.s-1","parameterCategory":1,"la1":30.2991,"la2":30.254,"lo1":-89.0895,"lo2":-89.0444,"dy":0.0017,"dx":0.0017,"nx":28,"ny":28,"refTime":"2023-10-10T21:00:00:Z","depth":0,"parameterNumber":3,"parameterNumberName":"V-component_of_WINDS"},"data":[0,0,0,0,0,0,0,0,0,0,0,0,0,0,0,0,0,0,0,0,0,0,0,0,0,0,0,0,0,0,0,0,0,0,0,0,0,0,0,0,0,0,0,0,0,0,0,0,0,0,0,0,0,0,0,0,0,0,3.0287,3.0287,0,3.0257,3.0257,3.0257,3.0231,3.0231,3.023,3.023,3.0196,3.0196,3.0195,0,0,0,0,0,0,0,0,0,0,0,0,0,3.032,3.032,3.0287,3.0287,3.0287,3.0257,3.0257,3.0256,3.0231,3.0231,3.023,3.023,3.0196,3.0196,3.0195,0,0,0,0,0,0,0,0,0,0,0,0,0,3.0299,3.0319,3.0287,3.027,3.0269,3.0257,3.0257,3.0256,3.0231,3.0231,3.023,3.023,3.0197,3.0196,3.0195,3.0197,0,0,3.0192,3.0191,0,0,0,0,0,0,0,0,3.0301,3.0298,3.0273,3.0272,3.027,3.0248,3.0256,3.0236,3.0231,3.0245,3.023,3.023,3.0213,3.0211,3.0206,3.0195,3.0194,3.0192,3.0191,3.0191,3.019,0,0,0,0,0,0,0,3.0302,3.0299,3.0275,3.0273,3.0271,3.0263,3.026,3.0252,3.0232,3.0244,3.0242,3.0239,3.0212,3.0207,3.0205,3.0193,3.0192,3.0191,3.019,3.019,3.0182,3.0183,0,0,0,0,0,0,3.0307,3.0301,3.0276,3.0274,3.0285,3.0263,3.0259,3.0255,3.0232,3.0228,3.0239,3.0238,3.0209,3.0206,3.0204,3.0204,3.0191,3.019,3.0189,3.0182,3.0182,3.0183,0,0,0,0,0,0,3.0307,3.0305,3.0277,3.0287,3.0283,3.0263,3.0258,3.0255,3.0249,3.0229,3.0224,3.0238,3.0209,3.0205,3.0199,3.0203,3.0189,3.0188,3.0181,3.0182,3.0183,3.0206,0,0,0,0,0,0,3.0308,3.0305,3.0306,3.0287,3.0283,3.0274,3.0259,3.0254,3.0248,3.0246,3.0226,3.0222,3.0208,3.0201,3.0198,3.0201,3.0188,3.0181,3.0182,3.0182,3.0205,3.0207,3.0209,0,0,0,0,0,3.031,3.0313,3.0306,3.0304,3.0284,3.0274,3.0271,3.0256,3.0249,3.0249,3.0236,3.0223,3.0203,3.02,3.0197,3.02,3.0181,3.0181,3.0182,3.0204,3.0207,3.0209,0,0,0,0,0,0,3.0332,3.031,3.0303,3.03,3.029,3.027,3.027,3.026,3.0249,3.0248,3.0228,3.0223,3.0219,3.0209,3.0206,3.0201,3.019,3.019,3.0207,3.021,3.0213,3.0215,3.0187,0,0,0,0,0,3.0337,3.0332,3.0313,3.0313,3.0308,3.029,3.0285,3.0274,3.0262,3.0257,3.0243,3.023,3.0221,3.0215,3.0206,3.0204,3.0198,3.0204,3.0207,3.0209,3.0209,3.0206,3.0209,3.0186,3.0186,3.0186,0,0,3.0346,3.0334,3.0332,3.0317,3.0307,3.0301,3.0286,3.0281,3.0276,3.0255,3.0249,3.0238,3.0223,3.0219,3.0216,3.021,3.0214,3.021,3.0212,3.021,3.0208,3.021,3.0212,3.0186,3.0186,3.0186,0,0,3.0361,3.0351,3.035,3.0341,3.0327,3.0315,3.0315,3.0297,3.029,3.0283,3.0268,3.0261,3.0246,3.0236,3.0228,3.024,3.0227,3.0237,3.0249,3.0247,3.0249,3.0251,3.0254,3.0255,3.0238,3.0238,3.0238,0,3.0374,3.0366,3.0351,3.0346,3.034,3.0322,3.0321,3.0312,3.0295,3.0291,3.0285,3.0266,3.0254,3.0247,3.025,3.0245,3.0243,3.0239,3.025,3.0252,3.0253,3.0256,3.0257,3.0239,3.0239,3.0239,3.0239,0,3.0382,3.0377,3.0378,3.0363,3.0357,3.0354,3.0337,3.0333,3.0323,3.0311,3.0305,3.029,3.0278,3.0275,3.0265,3.0267,3.0263,3.0254,3.0243,3.0256,3.0259,3.026,3.0241,3.024,3.024,3.024,0,0,3.0409,3.0387,3.0387,3.038,3.0364,3.0359,3.0355,3.0344,3.034,3.0329,3.0324,3.0312,3.0304,3.0296,3.0284,3.0283,3.0292,3.0273,3.0273,3.0277,3.0292,3.0299,3.0301,3.0284,3.0284,3.0284,3.0294,0,3.042,3.0413,3.0399,3.0396,3.039,3.0374,3.037,3.036,3.0349,3.0342,3.033,3.0322,3.0312,3.0307,3.0305,3.0291,3.0295,3.0291,3.0279,3.0278,3.0282,3.0302,3.0309,3.0318,3.0294,3.0295,3.0295,0,3.0431,3.0423,3.0419,3.0404,3.0401,3.0398,3.0386,3.038,3.0368,3.036,3.0352,3.0339,3.0333,3.0324,3.0315,3.0312,3.0307,3.03,3.03,3.0297,3.0287,3.0299,3.0321,3.0322,3.0296,3.0296,3.0296,0,3.045,3.0438,3.0434,3.0429,3.041,3.0409,3.0401,3.0388,3.0382,3.0372,3.0367,3.0357,3.035,3.0342,3.0326,3.0321,3.0319,3.0308,3.0311,3.0312,3.0311,3.0311,3.0331,3.0309,3.0309,3.0309,3.0309,0,3.0463,3.0462,3.0442,3.044,3.0437,3.0422,3.0419,3.041,3.0398,3.0393,3.0378,3.0374,3.0354,3.0347,3.0335,3.0329,3.0326,3.0319,3.0316,3.032,3.0321,3.0315,3.0314,3.0309,3.0309,3.0309,3.0309,0,3.0483,3.047,3.0465,3.0449,3.0445,3.0443,3.0429,3.0425,3.0415,3.0408,3.0406,3.0389,3.0379,3.0364,3.0349,3.0341,3.0337,3.0332,3.0342,3.034,3.0344,3.0343,3.036,3.0361,3.0339,3.034,3.034,0,3.0492,3.0491,3.0474,3.047,3.0464,3.0457,3.0452,3.0436,3.0431,3.0417,3.0415,3.0405,3.0396,3.0381,3.0367,3.0356,3.035,3.0356,3.0348,3.0352,3.0349,3.0349,3.0348,3.0358,3.0358,3.0359,3.0359,0,3.0509,3.0503,3.0496,3.0486,3.048,3.0472,3.0463,3.046,3.0443,3.0437,3.0429,3.0422,3.0408,3.0398,3.0385,3.0376,3.0364,3.0362,3.0362,3.0366,3.0371,3.0368,3.0346,3.0361,3.0361,3.0361,3.0361,3.0361,3.0523,3.0521,3.0509,3.0502,3.0494,3.0486,3.0482,3.0471,3.0464,3.0452,3.0444,3.0435,3.0422,3.0404,3.0396,3.0388,3.0383,3.0383,3.0383,3.0383,3.0384,3.0374,3.0386,3.0386,3.0386,3.0385,3.0385,0,3.0538,3.053,3.0524,3.0512,3.0506,3.0498,3.0487,3.0482,3.0476,3.0465,3.0457,3.0447,3.0437,3.0422,3.0411,3.0408,3.0402,3.0405,3.0405,3.0403,3.039,3.0391,3.041,3.041,3.041,3.041,3.041,3.041,3.0545,3.0541,3.0534,3.0525,3.0517,3.051,3.0505,3.0497,3.0489,3.0478,3.047,3.0461,3.0449,3.0437,3.0427,3.0423,3.0419,3.0424,3.0418,3.0406,3.0404,3.0402,3.0402,3.0424,3.0424,3.0431,3.0432,3.0432]}]]